Huvudsida
METAR-TAF:

METAR-TAF

Flygplatser :

Honningsvågs flygplats. Valan

Honningsvåg, Norge

latitud: 71-01N, longitud: 025-59E, höjd: 1 m

Aktuellt väderrapport

Denna rapport gjordes för 21 timmar och 59 minuter sedan, klockan 19:50 UTC
Vind 10 kt från väst/sydväst
Temperatur 11°C
Fuktighet 66%
Tryck 986 hPa
Sikt 10 km eller mer
Brutna moln på en höjd av 4900 ft

METAR: ENHV 211950Z 24010KT 9999 BKN049 11/05 Q0986

Tid: 19:49 (17:49 UTC)


TAF: saknas

Aktuella väderrapporter och prognoser från 4000 flygplatser (METAR- och TAF-rapporter).

De tillgängliga stationerna syns som gula och röda prickar på kartan.

För musen över prickarna för att se namnen på stationerna.

Klicka sedan för att få väderrapporter och prognoser.

För att ändra kartan: Klicka på de gröna knapparna med ett svart kors på för att zooma in; den gröna knappen med ett streck på för att zooma ut; eller på de gröna pilarna för angränsande kartor.


METAR-TAF: